| time (UTC) | temp C | wind direction | speed KPH | gust KPH | rain 1hr cm | rain 24hr cm | rain mn cm | humidity % | barometer mb |
| 20260502163026 | 28 | 232 | 6.4 | 0.0 | 0.00 | 2.82 | 0.00 | 19 | 915.2 |
| 20260502123026 | 26 | 272 | 14.5 | 0.0 | 0.00 | 2.82 | 0.00 | 18 | 917.8 |
| 20260502113026 | 23 | 276 | 12.9 | 0.0 | 0.00 | 2.82 | 0.00 | 22 | 918.5 |
| 20260502110026 | 22 | 283 | 9.7 | 0.0 | 0.00 | 2.82 | 0.00 | 25 | 918.8 |
| 20260502103026 | 21 | 232 | 9.7 | 0.0 | 0.00 | 2.82 | 0.00 | 29 | 919.1 |
| 20260502070026 | 10 | 121 | 24.1 | 0.0 | 0.00 | 2.82 | 0.00 | 61 | 920.8 |
| 20260502063026 | 7 | 158 | 19.3 | 0.0 | 0.00 | 2.82 | 0.00 | 67 | 920.9 |
| 20260502060026 | 6 | 138 | 16.1 | 0.0 | 0.00 | 2.82 | 0.00 | 73 | 920.9 |
| 20260502053026 | 5 | 100 | 12.9 | 0.0 | 0.00 | 2.82 | 0.00 | 73 | 921.1 |
| 20260502050026 | 5 | 100 | 14.5 | 0.0 | 0.00 | 2.82 | 0.00 | 73 | 921.1 |
| 20260502043026 | 5 | 131 | 16.1 | 0.0 | 0.00 | 2.82 | 0.00 | 73 | 921.0 |
| 20260502040026 | 5 | 120 | 19.3 | 0.0 | 0.00 | 2.82 | 0.00 | 72 | 920.9 |
| 20260502033026 | 5 | 125 | 17.7 | 0.0 | 0.00 | 2.82 | 0.00 | 71 | 920.9 |
| 20260502030026 | 6 | 136 | 16.1 | 0.0 | 0.00 | 2.82 | 0.00 | 69 | 921.0 |
| 20260502023026 | 6 | 120 | 12.9 | 0.0 | 0.00 | 2.82 | 0.00 | 68 | 921.1 |
| 20260502020026 | 6 | 112 | 16.1 | 0.0 | 0.00 | 2.82 | 0.00 | 67 | 921.2 |
| 20260502013026 | 7 | 117 | 12.9 | 0.0 | 0.00 | 2.82 | 0.00 | 65 | 921.3 |
| 20260502010026 | 7 | 115 | 14.5 | 0.0 | 0.00 | 2.82 | 0.00 | 64 | 921.5 |
| 20260502003026 | 7 | 142 | 12.9 | 0.0 | 0.00 | 2.82 | 0.00 | 63 | 921.5 |
| 20260502000026 | 7 | 162 | 8.0 | 0.0 | 0.00 | 2.82 | 0.00 | 62 | 921.6 |
| 20260501233026 | 7 | 125 | 8.0 | 0.0 | 0.00 | 2.82 | 0.00 | 61 | 921.6 |
| 20260501230026 | 7 | 122 | 8.0 | 0.0 | 0.00 | 2.82 | 0.00 | 60 | 921.7 |
| 20260501223026 | 8 | 120 | 3.2 | 0.0 | 0.00 | 2.82 | 0.00 | 58 | 921.9 |
| 20260501220026 | 9 | 324 | 1.6 | 0.0 | 0.00 | 2.82 | 0.00 | 57 | 922.0 |
| 20260501213026 | 10 | 0 | 0.0 | 0.0 | 0.00 | 2.82 | 0.00 | 54 | 922.1 |
| 20260501210026 | 11 | 132 | 6.4 | 0.0 | 0.00 | 2.82 | 0.00 | 52 | 921.9 |
| 20260501203026 | 11 | 330 | 0.0 | 0.0 | 0.00 | 2.82 | 0.00 | 51 | 921.7 |
| 20260501200026 | 12 | 0 | 0.0 | 0.0 | 0.00 | 2.82 | 0.00 | 48 | 921.6 |
| 20260501193026 | 13 | 0 | 0.0 | 0.0 | 0.00 | 2.82 | 0.00 | 46 | 921.6 |
| 20260501190026 | 15 | 0 | 0.0 | 0.0 | 0.00 | 2.82 | 0.00 | 42 | 921.5 |
| 20260501183026 | 16 | 0 | 0.0 | 0.0 | 0.00 | 2.82 | 0.00 | 37 | 921.2 |
| 20260501180026 | 19 | 0 | 0.0 | 0.0 | 0.00 | 2.82 | 0.00 | 33 | 921.1 |
| 20260501173026 | 23 | 148 | 8.0 | 0.0 | 0.00 | 2.82 | 0.00 | 25 | 921.0 |
| 20260501170026 | 24 | 158 | 17.7 | 0.0 | 0.00 | 2.82 | 0.00 | 23 | 920.7 |